Location: Berlin
(38.3226°N, 75.2177°W)
Time: 22:47:06
(UTC+00:00)

Cosmos 2084 - Pass Details

Date: 26 October 2020
Orbit: 563 x 619 km, 62.8° (Epoch: 05 December)

Event Time Altitude Azimuth Distance (km) Brightness Sun altitude
Exits shadow 09:48:48 - 198° (SSW) 2,532 6.5 -18.7°
Reaches altitude 10° 09:50:28 10° 194° (SSW) 1,881 5.9 -18.4°
Maximum altitude 09:54:34 50° 119° (ESE) 748 4.3 -17.6°
Drops below altitude 10° 09:58:47 10° 44° (NE) 1,928 6.7 -16.8°
Sets 10:01:06 0° 39° (NE) 2,844 7.5 -16.3°
